Wind_Speed
51 53 58 63 71 78 84 88 88 97 108 116 119 124 127 138 155 162 158 154 150 148 135 131 130 122 112 107 107 111 104 106 107 101 94 94 97 88 83 79 77 72 75 61
47 50 55 61 68 75 79 78 84 89 98 102 101 104 114 126 131 140 153 162 162 163 156 150 143 136 127 119 123 121 117 119 112 106 104 103 92 87 75 71 70 67 70 60
46 50 56 63 66 69 69 71 71 75 79 82 82 91 99 110 117 131 136 134 142 149 153 153 152 146 128 123 121 108 117 118 115 111 104 102 99 84 77 79 75 70 64 65
47 51 56 55 54 58 61 57 52 59 62 67 73 81 90 100 111 107 130 130 125 130 140 141 144 144 128 123 121 114 122 113 108 106 103 101 94 82 72 73 73 90 82 78
43 47 44 41 43 48 48 39 42 52 62 68 76 81 82 88 97 107 114 120 122 120 128 131 134 130 124 120 118 123 117 108 110 106 106 102 92 79 80 81 81 77 78 82
38 40 36 35 37 42 38 32 46 58 58 66 70 65 81 83 95 98 103 106 120 125 119 125 128 127 123 113 118 120 119 107 104 104 101 103 99 82 81 87 84 75 79 70
33 36 34 33 33 34 35 39 47 52 55 59 64 76 81 83 88 92 96 100 105 106 130 127 130 127 121 115 111 116 105 115 116 111 107 106 89 88 81 84 83 74 73 73
25 34 33 31 31 31 35 38 42 47 52 58 63 67 71 76 81 80 85 89 94 111 129 128 128 129 125 118 106 127 127 117 116 114 106 102 100 92 88 89 88 91 88 79
22 27 31 31 29 30 32 36 41 46 51 54 61 64 65 67 70 73 77 82 91 106 114 126 128 120 121 97 98 106 113 123 121 114 114 117 99 94 93 93 84 86 88 83
23 23 25 29 28 29 32 34 39 43 45 50 52 52 53 56 59 63 70 77 86 101 111 121 127 128 136 133 125 117 122 120 123 117 114 113 101 101 102 101 83 79 81 82
19 25 22 24 28 28 32 35 37 39 40 38 37 39 41 47 53 59 66 72 81 95 109 107 115 130 138 138 125 125 124 116 98 119 116 115 103 106 105 97 95 95 91 94
19 21 25 21 23 27 30 33 35 35 36 37 41 44 47 50 53 55 61 67 78 87 96 100 102 110 130 132 123 118 127 132 102 110 112 108 108 105 106 105 97 98 102 106
20 19 23 25 23 24 28 30 31 30 31 36 39 42 45 48 50 52 57 64 72 79 88 96 103 106 119 134 147 143 135 135 129 123 115 115 121 115 108 105 107 104 104 102
20 19 20 22 24 21 24 28 25 30 31 35 39 39 41 44 47 50 55 61 66 75 82 93 103 102 111 121 132 131 131 130 130 129 123 113 111 116 109 108 114 120 119 112
19 19 20 18 18 20 20 23 23 27 30 36 38 39 41 45 47 48 53 59 64 70 76 84 91 95 102 112 121 125 122 124 122 106 97 91 104 110 115 117 120 123 112 113
19 17 18 18 16 15 16 19 20 23 27 31 32 34 37 40 43 45 50 58 62 64 69 76 85 89 98 108 121 124 121 118 115 106 104 102 110 110 117 116 118 117 127 121
19 17 15 16 16 15 16 18 19 21 25 27 28 32 33 35 39 42 45 51 54 59 66 73 78 88 100 103 110 116 119 116 111 107 105 100 111 116 115 118 121 119 124 131
21 17 14 12 13 14 16 15 17 19 19 22 25 27 30 32 35 39 42 46 51 55 61 67 71 80 91 98 101 110 116 113 105 104 112 105 110 118 119 111 121 122 120 124
23 17 16 13 10 9 10 12 13 18 20 19 20 24 26 29 32 35 40 46 50 55 60 64 68 76 84 88 98 105 114 119 121 116 111 120 116 119 118 117 114 116 117 117
23 20 14 13 11 10 9 9 10 13 17 20 21 21 21 26 27 31 37 42 48 53 55 58 64 70 77 84 93 99 110 116 119 122 121 120 118 119 119 116 109 106 111 109
21 21 17 13 11 10 10 10 9 9 12 14 17 19 19 21 25 28 31 35 41 45 50 57 62 67 71 79 87 98 100 106 108 112 115 117 119 119 119 116 116 115 111 102
18 18 19 16 12 11 10 9 10 11 11 10 12 16 18 21 23 26 29 31 33 39 45 52 59 63 71 79 87 93 95 100 104 107 108 113 115 115 114 115 119 115 112 110
17 14 15 17 15 12 12 11 11 13 14 13 13 14 16 19 23 26 27 30 33 36 41 46 52 59 65 69 76 82 89 94 98 97 98 102 105 108 112 113 107 107 106 106
16 14 12 11 15 15 12 12 14 16 16 16 15 15 16 18 23 25 27 30 31 34 38 41 46 50 54 56 59 64 73 78 86 91 97 98 100 101 104 105 104 106 110 111
16 14 11 9 10 13 14 13 13 15 17 19 19 19 20 20 20 22 25 27 30 32 34 37 41 46 51 55 60 66 72 77 81 84 86 89 93 95 98 100 102 105 98 99
15 13 12 11 8 9 13 15 15 17 17 19 20 21 23 22 23 24 26 28 29 32 33 34 36 40 42 45 48 52 57 63 68 73 78 82 85 89 91 92 91 89 87 85
17 14 13 12 11 8 7 12 16 18 18 18 20 23 25 26 28 30 30 31 31 31 32 34 36 38 41 44 46 49 51 54 57 61 65 67 70 72 74 74 72 74 74 75
Wind_Direction
249 246 246 244 243 244 242 240 240 238 239 238 238 238 239 239 238 238 239 238 236 240 240 238 239 241 244 242 241 247 252 247 246 252 251 250 255 262 265 263 274 272 261 262
247 243 245 244 243 242 243 242 240 237 239 240 240 239 238 238 237 238 237 240 241 242 242 239 238 238 239 240 244 247 252 253 251 250 253 256 261 262 259 262 257 260 261 258
244 243 244 246 247 248 249 248 247 244 243 246 244 241 240 239 238 237 237 237 238 239 238 237 238 240 238 239 240 243 244 247 248 251 254 254 251 248 253 255 248 253 254 255
253 252 254 255 255 255 253 247 244 244 240 239 237 235 235 234 237 237 238 239 238 238 237 236 236 237 235 234 237 230 239 243 244 248 251 251 256 256 252 253 254 257 252 253
259 262 263 262 260 259 258 251 241 235 230 230 231 230 228 230 233 233 233 236 236 236 236 237 233 235 235 234 235 233 239 240 242 244 245 249 253 248 243 246 252 255 255 259
264 270 267 264 260 257 252 238 233 235 234 229 228 226 227 225 227 232 230 231 231 233 235 233 229 228 231 233 233 236 236 236 238 242 244 247 250 254 250 251 248 254 258 261
269 274 271 266 258 255 247 236 233 237 231 232 226 226 227 227 228 227 227 228 229 229 229 230 227 226 227 225 233 236 236 231 234 238 239 241 243 246 249 246 245 252 259 262
273 274 274 270 262 252 245 239 234 235 233 232 231 230 229 228 230 229 228 226 226 224 226 227 225 224 224 228 228 240 236 235 234 239 241 241 243 245 250 252 247 252 259 262
275 271 274 273 264 255 247 239 236 236 237 236 234 234 232 231 232 229 226 224 222 223 226 223 223 219 219 213 215 232 237 235 233 234 238 242 243 243 247 248 251 258 258 260
283 276 273 271 266 258 250 243 240 239 235 235 237 238 238 236 234 230 227 223 222 222 223 223 222 218 220 224 222 228 239 238 233 234 236 240 239 242 243 248 253 254 257 254
291 282 274 271 268 261 251 244 239 239 240 240 242 242 240 237 235 231 226 223 221 220 223 224 222 220 220 222 225 222 231 233 228 229 235 238 239 242 248 253 251 247 250 254
302 284 282 274 266 263 257 251 246 243 239 235 230 229 228 227 227 226 225 221 221 221 223 224 224 223 221 222 224 221 226 231 235 236 234 238 242 243 246 250 252 251 250 251
309 289 277 279 278 263 260 256 249 244 239 236 233 232 233 231 227 224 223 222 220 220 221 224 223 222 221 219 223 225 230 234 238 238 237 237 240 243 244 245 246 243 246 247
312 295 282 271 276 272 259 258 249 242 236 234 232 230 231 234 230 225 223 223 221 219 219 219 222 223 223 224 225 228 232 237 238 237 239 238 241 242 243 242 242 245 246 245
316 302 290 281 272 273 265 256 246 237 230 228 229 229 229 230 229 226 223 222 220 221 220 220 221 219 222 223 225 227 229 233 236 237 236 237 240 240 240 239 241 243 242 244
319 308 295 290 281 278 276 262 251 244 237 230 227 228 229 230 229 226 223 222 221 221 220 218 218 217 219 220 222 225 226 230 235 238 240 244 242 243 240 239 240 242 240 243
322 313 303 297 291 291 281 263 249 238 232 229 225 225 225 225 227 227 223 223 222 220 218 218 216 215 215 218 222 225 227 231 231 234 235 239 241 244 242 241 242 245 243 243
322 319 308 294 282 277 271 265 254 239 235 235 227 223 222 220 222 222 220 218 219 219 219 218 217 216 218 218 219 221 225 228 230 232 235 240 242 245 247 246 243 245 247 246
322 322 311 304 288 265 256 246 241 234 221 213 216 221 220 221 222 220 218 217 215 216 217 217 214 216 216 216 219 221 223 227 227 229 234 237 239 243 247 248 247 248 249 250
325 320 317 307 307 291 271 251 233 224 219 212 208 208 217 223 220 218 221 219 218 216 216 218 219 216 214 216 217 221 225 230 230 235 238 241 245 248 251 253 252 253 253 252
330 320 317 313 302 283 275 269 258 239 226 221 216 210 207 214 218 217 216 221 221 222 218 215 216 216 216 214 218 222 226 230 233 236 239 242 246 249 252 257 262 263 261 258
335 325 316 314 303 294 282 266 261 251 241 227 223 218 209 206 212 217 215 213 218 221 218 220 219 216 215 217 218 223 228 231 235 237 239 241 244 248 251 254 258 261 262 264
336 330 317 313 307 297 291 283 264 253 243 234 223 220 221 213 216 215 212 216 212 214 219 219 221 220 223 224 225 226 229 231 235 238 240 243 247 251 252 253 257 262 266 267
334 330 326 308 302 301 286 270 264 261 257 250 241 229 223 222 222 218 213 216 218 216 214 218 220 223 225 225 226 231 234 238 241 243 244 246 248 251 254 257 260 263 265 265
335 326 323 319 300 293 289 280 267 260 254 249 247 242 237 229 226 222 221 219 218 218 219 219 219 223 225 225 225 225 227 231 233 237 240 243 246 249 253 257 259 261 263 264
335 327 321 313 303 293 289 286 277 265 259 256 250 247 247 247 243 236 230 227 224 220 216 219 224 226 225 228 232 236 237 237 239 241 242 244 247 249 251 253 255 257 257 258
330 330 323 314 305 298 289 279 280 279 271 262 255 251 247 245 244 243 240 239 235 230 229 225 224 227 229 232 235 236 236 236 237 237 237 239 241 244 247 251 255 259 261 263
Height
10086 10089 10092 10096 10097 10099 10106 10113 10131 10140 10135 10141 10160 10185 10217 10234 10256 10283 10296 10319 10336 10345 10385 10408 10412 10428 10457 10481 10486 10483 10504 10500 10504 10521 10523 10527 10531 10544 10549 10554 10564 10569 10577 10589
10069 10070 10072 10073 10075 10076 10081 10097 10102 10112 10113 10117 10148 10177 10184 10199 10221 10239 10257 10272 10301 10330 10351 10365 10386 10405 10442 10445 10448 10464 10474 10474 10489 10498 10500 10513 10526 10531 10532 10538 10541 10554 10559 10579
10055 10055 10054 10054 10056 10059 10063 10072 10085 10094 10107 10122 10138 10153 10169 10170 10192 10206 10217 10245 10269 10288 10308 10332 10359 10383 10411 10416 10428 10442 10436 10444 10466 10482 10490 10488 10496 10508 10516 10515 10527 10539 10548 10549
10042 10040 10040 10043 10046 10045 10042 10058 10080 10085 10094 10101 10108 10114 10129 10145 10155 10187 10198 10211 10240 10263 10283 10310 10337 10353 10381 10389 10399 10405 10413 10434 10453 10462 10463 10470 10480 10486 10495 10499 10519 10510 10533 10530
10031 10028 10030 10038 10037 10033 10035 10052 10060 10058 10062 10066 10073 10086 10106 10119 10133 10148 10166 10185 10216 10237 10255 10292 10319 10332 10351 10369 10380 10388 10400 10424 10431 10434 10442 10451 10459 10463 10477 10488 10493 10495 10503 10514
10020 10019 10021 10021 10022 10019 10026 10038 10034 10036 10046 10050 10061 10084 10076 10091 10092 10114 10140 10158 10181 10202 10234 10263 10289 10302 10318 10342 10351 10357 10378 10394 10405 10411 10423 10427 10427 10459 10460 10466 10474 10479 10482 10501
10013 10010 10010 10010 10010 10010 10013 10018 10020 10022 10031 10038 10045 10048 10055 10069 10079 10093 10112 10133 10154 10193 10201 10225 10253 10274 10292 10314 10314 10332 10354 10362 10367 10380 10390 10391 10430 10429 10440 10442 10456 10458 10464 10467
10007 10000 10000 9999 10000 10000 10001 10003 10009 10015 10018 10021 10026 10035 10047 10053 10064 10084 10098 10121 10143 10154 10164 10189 10214 10246 10266 10287 10314 10303 10325 10336 10349 10366 10377 10390 10400 10421 10425 10427 10438 10437 10447 10450
9999 9994 9991 9989 9990 9990 9992 9995 9996 9999 10004 10010 10012 10020 10031 10043 10056 10070 10085 10099 10114 10124 10138 10158 10186 10222 10250 10266 10276 10274 10292 10312 10325 10341 10355 10360 10400 10407 10405 10404 10415 10425 10427 10431
9990 9987 9985 9981 9980 9981 9980 9982 9984 9988 9994 9997 10004 10015 10027 10036 10048 10059 10067 10080 10093 10103 10115 10134 10168 10198 10213 10227 10255 10271 10260 10284 10305 10323 10335 10347 10378 10380 10383 10384 10421 10411 10407 10408
9984 9979 9977 9976 9973 9973 9973 9973 9975 9979 9984 9993 10001 10008 10017 10024 10032 10040 10049 10060 10072 10083 10090 10116 10142 10168 10186 10204 10219 10235 10244 10259 10280 10297 10310 10327 10367 10366 10373 10389 10388 10392 10388 10386
9977 9973 9969 9968 9968 9965 9965 9966 9968 9973 9978 9984 9989 9993 10000 10007 10014 10024 10033 10045 10052 10066 10081 10102 10124 10152 10173 10191 10212 10224 10220 10240 10266 10282 10310 10324 10339 10353 10355 10360 10360 10363 10366 10370
9969 9967 9964 9961 9960 9961 9959 9959 9962 9967 9972 9975 9979 9984 9989 9996 10005 10013 10019 10027 10037 10052 10068 10083 10098 10116 10149 10169 10172 10199 10213 10228 10243 10264 10288 10298 10312 10319 10329 10337 10342 10338 10342 10352
9964 9960 9957 9956 9954 9953 9954 9953 9957 9957 9961 9965 9968 9976 9981 9987 9994 10001 10007 10015 10026 10036 10049 10063 10078 10102 10122 10144 10171 10194 10209 10217 10227 10244 10263 10282 10287 10294 10306 10310 10312 10314 10319 10329
9958 9954 9950 9949 9948 9946 9946 9947 9949 9950 9953 9956 9960 9966 9970 9976 9982 9988 9995 10003 10011 10021 10034 10047 10064 10087 10107 10134 10153 10171 10186 10194 10208 10230 10244 10257 10260 10261 10268 10277 10280 10288 10300 10306
9953 9950 9945 9943 9941 9940 9939 9940 9942 9944 9946 9950 9953 9958 9962 9967 9972 9980 9987 9990 10000 10012 10025 10038 10051 10076 10096 10110 10127 10140 10158 10176 10194 10212 10224 10228 10231 10238 10244 10250 10261 10272 10277 10282
9948 9945 9941 9938 9935 9935 9935 9935 9936 9937 9939 9942 9947 9950 9955 9960 9965 9971 9978 9984 9994 10003 10012 10025 10042 10058 10073 10095 10113 10132 10147 10162 10180 10186 10198 10202 10206 10211 10219 10229 10241 10248 10254 10263
9943 9941 9938 9936 9934 9933 9932 9931 9932 9933 9936 9939 9943 9945 9949 9953 9958 9963 9969 9975 9983 9993 10004 10016 10032 10046 10063 10080 10104 10117 10132 10149 10159 10165 10169 10177 10184 10193 10200 10211 10220 10225 10232 10244
9938 9937 9934 9931 9930 9931 9931 9930 9930 9931 9933 9934 9937 9940 9944 9948 9952 9957 9963 9968 9974 9982 9993 10006 10021 10035 10046 10073 10086 10101 10111 10122 10127 10138 10145 10149 10158 10169 10180 10186 10197 10204 10213 10223
9935 9932 9932 9929 9926 9926 9927 9927 9928 9929 9930 9931 9933 9936 9940 9944 9950 9954 9959 9964 9969 9976 9987 9999 10008 10022 10040 10057 10070 10083 10093 10097 10112 10119 10128 10135 10144 10152 10161 10168 10175 10184 10195 10201
9933 9928 9927 9927 9926 9924 9923 9924 9925 9926 9928 9929 9931 9934 9937 9940 9945 9950 9956 9962 9967 9975 9982 9990 9999 10013 10026 10043 10056 10067 10074 10084 10096 10105 10113 10120 10127 10134 10142 10149 10154 10160 10162 10175
9933 9927 9923 9922 9922 9921 9921 9921 9922 9923 9924 9926 9928 9932 9935 9937 9940 9945 9951 9957 9964 9972 9978 9985 9991 10004 10017 10028 10040 10050 10062 10071 10079 10088 10097 10104 10111 10120 10129 10132 10130 10135 10140 10147
9931 9927 9922 9918 9918 9918 9918 9918 9918 9919 9920 9923 9925 9928 9932 9934 9937 9941 9946 9951 9957 9963 9970 9978 9987 9996 10006 10017 10028 10038 10048 10056 10063 10074 10084 10092 10101 10105 10103 10106 10114 10116 10123 10127
9929 9926 9922 9919 9915 9915 9916 9916 9916 9916 9918 9920 9924 9926 9928 9932 9935 9938 9942 9945 9951 9957 9963 9971 9978 9987 9996 10009 10022 10031 10038 10049 10054 10057 10063 10068 10076 10079 10086 10091 10096 10097 10102 10103
9927 9924 9921 9917 9914 9912 9912 9913 9914 9916 9916 9917 9919 9921 9924 9927 9930 9933 9936 9940 9945 9950 9958 9965 9971 9977 9983 9992 10000 10006 10014 10020 10027 10034 10041 10050 10056 10060 10065 10070 10075 10077 10078 10079
9924 9921 9918 9916 9913 9911 9909 9908 9909 9910 9911 9913 9915 9917 9918 9920 9923 9926 9929 9933 9939 9945 9952 9957 9963 9968 9974 9981 9988 9994 10001 10007 10013 10021 10026 10032 10038 10043 10048 10050 10051 10053 10055 10055
9920 9918 9915 9912 9911 9909 9908 9906 9905 9906 9907 9908 9910 9911 9913 9915 9916 9919 9922 9926 9932 9938 9943 9948 9953 9957 9963 9968 9975 9981 9985 9990 9996 10002 10008 10014 10019 10023 10025 10027 10028 10031 10033 10035